METEOR 2-8 DEB

Satellite information

Favourite Embed

Satellite Type and Status

DEBRISIN ORBIT

Key statistics

Satellite METEOR 2-8 DEB at a glance.

Uptime

15970

Days in orbit

Revolutions

≈ 14.3

Per day

Orbit

LEO

Low Earth Orbit

Inclination

82.5

Latest

Satellite identification and parameters

Extended collection of information and parameters for METEOR 2-8 DEB.

Object identification

Identified? True

Debris? True

Object name: METEOR 2-8 DEB

International designator: 1982-025AM

Object number (NORAD): 36351

Object ID (CCSDS): 36351

Country: COMMONWEALTH OF INDEPENDENT STATES (CIS)

Current information (Y/N): Y

RCS size: SMALL

Orbital parameters

Period: 100.819 minutes

Inclination: 82.5423 deg

SMA: 7175.528 km

Apoapsis: 807.831 km

Periapsis: 786.954 km

RAAN: 36.2796 deg

Eccentricy: 0.0014547

Argument of periapsis: 92.2083 deg

Mean anomaly: 268.0768 deg

Mean motion: 14.28308403 rev/day

Mean motion (dot): 0.00012165 rev/day2

B* drag term: 0.004859 1/REarth

Two-line elements (TLE)

Creation date: Dec. 4, 2025, 7:56 a.m.

Reference frame: TEME

Reference center: EARTH

Epoch: Dec. 3, 2025, 9:53 p.m. UTC

TLE line 0: 0 METEOR 2-8 DEB

TLE line 1: 1 36351U 82025AM 25337.91218506 .00012165 00000-0 48590-2 0 9990

TLE line 2: 2 36351 82.5423 36.2796 0014547 92.2083 268.0768 14.28308403696238

Live tracking on map

Real-time ground track for satellite METEOR 2-8 DEB.

In-orbit conjunctions

A list of the most updated potential collisions computed for object METEOR 2-8 DEB.

Target Orbit TCA Probability of collision Miss distance Type
FENGYUN 1C DEB SSO 2025-08-26 17:14:44 0.0002445025 127.0 (m) DEBRIS
NOAA 16 DEB SSO 2024-07-20 09:38:23 0.0001024046 98.0 (m) DEBRIS

Associated space launch

Second generation soviet meteorological satellite

METEOR 2-8 DEB was lifted into orbit during the mission ‘Tsiklon-3 | Meteor-2 8’, on board a Tsiklon-3 space rocket.

The launch took place on March 25, 1982, 9:50 a.m. from 32/1.

For more information about the launch, click the button.

Launch to space Tsiklon-3 | Meteor-2 8
Tsiklon-3 | Meteor-2 8

Agency: N/A

Status: Launch Successful

Launch date: March 25, 1982, 9:50 a.m. UTC

Rocket: Tsiklon-3

Launch pad: 32/1

Location: Plesetsk Cosmodrome, Russian Federation

...

Latest news about this satellite

There are no fresh news available about this satellite. Check back as we update our databases every day.


Newsletter sign-up

Weekly statistics, charts and insights to help you stay on top of the space industry.